,

(GMT )
Munich

Weather History for EDDM - May, 2013

Change the Weather History Date:

Thursday, May 23, 2013

  Actual Average Record
Temperature  
Mean Temperature 48 °F -  
Max Temperature 55 °F 66 °F 78 °F (2007)
Min Temperature 42 °F 47 °F 37 °F (2004)
Degree Days  
Heating Degree Days 16    
Moisture  
Dew Point 40 °F    
Average Humidity 77    
Maximum Humidity 93    
Minimum Humidity 47    
Precipitation  
Precipitation 0.00 in - - ()
Sea Level Pressure  
Sea Level Pressure 29.79 in    
Wind  
Wind Speed 6 mph ()    
Max Wind Speed 23 mph    
Max Gust Speed 37 mph    
Visibility 6.2 miles    
Events Rain , Thunderstorm    
Averages and records for this station are not official NWS values.
T = Trace of Precipitation, MM = Missing Value Source: Averaged Metar Reports

Daily Weather History Graph

Daily Weather History Graph

Search for Another Location

Airport or City:

Trip Planner

Search our weather history database for the weather conditions in past years. The results will help you decide how hot, cold, wet, or windy it might be!

Date:

Astronomy

May. 23, 2013 Rise Set
Actual Time 5:24 AM CEST 8:55 PM CEST
Civil Twilight 4:46 AM CEST 9:34 PM CEST
Nautical Twilight 3:54 AM CEST 10:26 PM CEST
Astronomical Twilight 2:46 AM CEST 11:36 PM CEST
Moon 7:01 PM CEST (5/23) 4:07 AM CEST (5/23)
Length of Visible Light 16h 48m
Length of Day
15h 30m
Waxing Gibbous, 95% of the Moon is Illuminated
May 23
Waxing Gibbous
May 25
Full
May 31
Last Quarter
Jun 8
New
Jun 16
First Quarter

Hourly Weather History & Observations

Time (CEST) Temp. Windchill Dew Point Humidity Pressure Visibility Wind Dir Wind Speed Gust Speed Precip Events Conditions
12:20 AM 44.6 °F 40.2 °F 41.0 °F 87% 29.92 in 6.2 mi Variable 8.1 mph - N/A   Mostly Cloudy
12:50 AM 44.6 °F 39.7 °F 41.0 °F 87% 29.92 in 6.2 mi WNW 9.2 mph - N/A   Mostly Cloudy
1:20 AM 44.6 °F 40.2 °F 41.0 °F 87% 29.92 in 6.2 mi WNW 8.1 mph - N/A   Mostly Cloudy
1:50 AM 44.6 °F 40.7 °F 41.0 °F 87% 29.89 in 6.2 mi West 6.9 mph - N/A   Mostly Cloudy
2:20 AM 44.6 °F 40.2 °F 39.2 °F 81% 29.89 in 6.2 mi WNW 8.1 mph - N/A   Mostly Cloudy
2:50 AM 42.8 °F 37.5 °F 41.0 °F 93% 29.89 in 6.2 mi West 9.2 mph - N/A   Mostly Cloudy
3:20 AM 42.8 °F 38.6 °F 41.0 °F 93% 29.89 in 6.2 mi West 6.9 mph - N/A   Mostly Cloudy
3:50 AM 42.8 °F 38.0 °F 41.0 °F 93% 29.89 in 6.2 mi West 8.1 mph - N/A   Mostly Cloudy
4:20 AM 42.8 °F 40.1 °F 39.2 °F 87% 29.86 in 6.2 mi WSW 4.6 mph - N/A   Mostly Cloudy
4:50 AM 42.8 °F 40.1 °F 39.2 °F 87% 29.86 in 6.2 mi WSW 4.6 mph - N/A   Mostly Cloudy
5:20 AM 42.8 °F 40.1 °F 39.2 °F 87% 29.86 in 6.2 mi West 4.6 mph - N/A   Mostly Cloudy
5:50 AM 42.8 °F 41.1 °F 39.2 °F 87% 29.86 in 6.2 mi West 3.5 mph - N/A   Mostly Cloudy
6:20 AM 42.8 °F 41.1 °F 41.0 °F 93% 29.86 in 6.2 mi West 3.5 mph - N/A   Mostly Cloudy
6:50 AM 42.8 °F 39.3 °F 41.0 °F 93% 29.86 in 6.2 mi West 5.8 mph - N/A   Mostly Cloudy
7:20 AM 44.6 °F 40.7 °F 41.0 °F 87% 29.83 in 6.2 mi WSW 6.9 mph - N/A   Mostly Cloudy
7:50 AM 44.6 °F 40.2 °F 41.0 °F 87% 29.83 in 6.2 mi West 8.1 mph - N/A   Mostly Cloudy
8:20 AM 44.6 °F 41.4 °F 39.2 °F 81% 29.83 in 6.2 mi West 5.8 mph - N/A   Overcast
8:50 AM 44.6 °F 42.2 °F 39.2 °F 81% 29.83 in 6.2 mi West 4.6 mph - N/A   Overcast
9:20 AM 44.6 °F 42.2 °F 41.0 °F 87% 29.83 in 6.2 mi West 4.6 mph - N/A   Overcast
9:50 AM 46.4 °F 44.3 °F 39.2 °F 76% 29.83 in 6.2 mi West 4.6 mph - N/A   Overcast
10:20 AM 46.4 °F 43.5 °F 41.0 °F 81% 29.83 in 6.2 mi West 5.8 mph - N/A   Overcast
10:50 AM 46.4 °F 42.9 °F 41.0 °F 81% 29.80 in 6.2 mi WSW 6.9 mph - N/A   Overcast
11:20 AM 48.2 °F - 37.4 °F 66% 29.80 in 6.2 mi Variable 3.5 mph - N/A   Overcast
11:50 AM 48.2 °F - 37.4 °F 66% 29.80 in 6.2 mi WSW 4.6 mph - N/A   Overcast
12:20 PM 50.0 °F - 39.2 °F 66% 29.77 in 6.2 mi West 6.9 mph - N/A   Mostly Cloudy
12:50 PM 50.0 °F - 41.0 °F 71% 29.77 in 6.2 mi WNW 3.5 mph - N/A   Mostly Cloudy
1:20 PM 50.0 °F - 37.4 °F 62% 29.77 in 6.2 mi Variable 2.3 mph - N/A   Mostly Cloudy
1:50 PM 50.0 °F - 39.2 °F 66% 29.74 in 6.2 mi SW 4.6 mph - N/A   Mostly Cloudy
2:20 PM 50.0 °F - 37.4 °F 62% 29.74 in 6.2 mi Variable 3.5 mph - N/A   Mostly Cloudy
2:50 PM 53.6 °F - 37.4 °F 54% 29.71 in 6.2 mi Variable 2.3 mph - N/A   Scattered Clouds
3:20 PM 53.6 °F - 41.0 °F 62% 29.71 in 6.2 mi Variable 2.3 mph - N/A   Scattered Clouds
3:50 PM 55.4 °F - 41.0 °F 58% 29.71 in 6.2 mi ENE 2.3 mph - N/A   Mostly Cloudy
4:20 PM 55.4 °F - 35.6 °F 47% 29.68 in 6.2 mi East 4.6 mph - N/A   Mostly Cloudy
4:50 PM 53.6 °F - 39.2 °F 58% 29.68 in 6.2 mi Variable 3.5 mph - N/A   Mostly Cloudy
5:20 PM 55.4 °F - 39.2 °F 54% 29.68 in 6.2 mi SSE 5.8 mph - N/A   Mostly Cloudy
5:50 PM 53.6 °F - 37.4 °F 54% 29.68 in 6.2 mi South 4.6 mph - N/A   Mostly Cloudy
6:20 PM 53.6 °F - 41.0 °F 62% 29.65 in 6.2 mi SE 4.6 mph - N/A   Mostly Cloudy
6:50 PM 53.6 °F - 39.2 °F 58% 29.65 in 6.2 mi ESE 8.1 mph - N/A   Mostly Cloudy
7:20 PM 51.8 °F - 41.0 °F 67% 29.65 in 6.2 mi ESE 6.9 mph - N/A   Mostly Cloudy
7:50 PM 51.8 °F - 42.8 °F 71% 29.65 in 6.2 mi ESE 5.8 mph - N/A   Mostly Cloudy
8:20 PM 51.8 °F - 42.8 °F 71% 29.68 in 6.2 mi SE 6.9 mph - N/A   Mostly Cloudy
8:50 PM 44.6 °F 35.9 °F 42.8 °F 93% 29.71 in 6.2 mi West 23.0 mph 36.8 mph N/A Rain , Thunderstorm Thunderstorms and Rain
9:20 PM 44.6 °F 38.8 °F 42.8 °F 93% 29.71 in 6.2 mi WNW 11.5 mph - N/A   Mostly Cloudy
9:50 PM 44.6 °F 39.7 °F 42.8 °F 93% 29.74 in 6.2 mi WNW 9.2 mph - N/A   Mostly Cloudy
10:20 PM 44.6 °F 40.2 °F 42.8 °F 93% 29.77 in 6.2 mi WSW 8.1 mph - N/A   Mostly Cloudy
10:50 PM 44.6 °F 38.1 °F 41.0 °F 87% 29.77 in 6.2 mi West 13.8 mph - N/A   Mostly Cloudy
11:20 PM 44.6 °F 38.1 °F 41.0 °F 87% 29.77 in 6.2 mi West 13.8 mph - N/A   Mostly Cloudy
11:50 PM 44.6 °F 37.8 °F 39.2 °F 81% 29.80 in 6.2 mi West 15.0 mph - N/A   Mostly Cloudy